Hlavní strana
METAR-TAF:

METAR-TAF

Letiště :

Newark-Heath Airport

Newark, Ohio, Spojené státy americké

zeměpisná šířka: 40-01-22N, zeměpisná délka: 082-27-45W, výška: 269 m

Aktuální stav počasí

Zpráva byla vytvořena před 16 minutami, v 10:54 UTC
Bezvětří
Teplota -7°C
Vlhkost vzduchu 79%
Tlak 1026 hPa
Viditelnost: 16.1 km
Jasno

METAR: KVTA 071054Z AUTO 00000KT 10SM CLR M07/M10 A3029 RMK AO2 SLP268 T10721100

Čas: 06:10 (11:10 UTC)


TAF: chybějící

Stav a předpovědi počasí z více než 4 000 letišť (zprávy METAR a TAF).

Červené a žluté tečky na mapě představují dostupné meteorologické stanice.

Když kurzor umístíte na tečku, zobrazí se název stanice.

Pak kliknutím zobrazíte stav a předpověď počasí.

Chcete-li změnit mapu, kliknutím na zelené tlačítko se znaménkem +mapu přiblížíte, kliknutím na zelené tlačítko se znaménkem – mapu oddálíte a kliknutím na zelené šipky přejdete na sousední mapy.


METAR-TAF: